Flag for Switzerland Weather past 2 weeks in Bern, Bern, Switzerland

Now
45 °F

Partly sunny.


Feels Like: 40 °F
Forecast: 28 / 47 °F
Wind: 9 mph from West

Location: Bern / Belp

Current Time: Oct 22, 2014 at 3:18:09 PM

Latest Report: Oct 22, 2014 at 2:50 PM


Visibility: N/A

Pressure: 30.24 "Hg

Humidity: 61%

Dew point: 32 °F

Location of BernLocation

Historic Weather in Bern — Graph

°F

Bern temperature yesterday

Maximum temperature yesterday: 66 °F (at 11:50 AM)
Minimum temperature yesterday: 48 °F (at 8:50 PM)
Average temperature yesterday: 59 °F

Past Weeks' High & Low Weather Summary

 TemperatureHumidityPressure
High73 °F (Oct 9, 3:20 PM)100% (Oct 7, 10:50 PM)30.27 "Hg (Oct 7, 10:50 PM)
Low39 °F (Oct 22, 8:50 AM)50% (Oct 9, 3:20 PM)29.77 "Hg (Oct 13, 4:50 AM)
Average57 °F88%29.98 "Hg
* Reported Oct 7 1:20 PM — Oct 22 1:50 PM, Bern, Weather by CustomWeather, © 2014

Note: Actual official high and low records may vary slightly from our data, if they occured in-between our weather recording intervals... More about our weather records

Advertising

Bern weather history for previous 24 hours

 ConditionsComfort  
Time TempWeatherWind HumidityBarometerVisibility
1:50 PM
Oct 22
45 °FPartly sunny.13 mph61%30.24 "HgN/A
1:20 PM45 °FPartly sunny.13 mph66%30.24 "HgN/A
12:50 PM45 °FPartly sunny.10 mph66%30.24 "HgN/A
12:20 PM43 °FBroken clouds.13 mph66%30.24 "HgN/A
11:50 AM43 °FBroken clouds.15 mph71%30.21 "HgN/A
11:20 AM41 °FBroken clouds.16 mph76%30.21 "HgN/A
10:50 AM41 °FDrizzle. Partly sunny.13 mph81%30.21 "HgN/A
10:20 AM43 °FBroken clouds.12 mph66%30.21 "HgN/A
9:50 AM41 °FScattered clouds.12 mph76%30.18 "HgN/A
9:20 AM41 °FScattered showers. Partly sunny.15 mph81%30.18 "HgN/A
8:50 AM39 °FPassing clouds.6 mph87%30.18 "HgN/A
8:20 AM41 °FRain showers. Partly cloudy.21 mph81%30.15 "HgN/A
7:50 AM43 °FPassing clouds.16 mph71%30.12 "Hg6 mi
7:20 AM45 °FPassing clouds.18 mph66%30.12 "HgN/A
6:50 AM45 °FPassing clouds.17 mph71%30.12 "HgN/A
6:20 AM45 °FPartly cloudy.17 mph71%30.12 "HgN/A
5:50 AM46 °FPartly cloudy.17 mph66%30.09 "HgN/A
5:20 AM45 °FPartly cloudy.13 mph71%30.09 "HgN/A
4:50 AM45 °FPassing clouds.12 mph76%30.09 "HgN/A
4:20 AM45 °FSprinkles. Partly cloudy.10 mph76%30.09 "HgN/A
3:50 AM45 °FPassing clouds.9 mph76%30.09 "HgN/A
3:20 AM45 °FPassing clouds.8 mph76%30.12 "HgN/A
2:50 AM43 °FPartly cloudy.9 mph81%30.12 "HgN/A
2:20 AM45 °FPassing clouds.13 mph76%30.12 "HgN/A
1:50 AM46 °FSprinkles. Passing clouds.15 mph71%30.09 "HgN/A
1:20 AM46 °FLight rain. Passing clouds.16 mph71%30.09 "HgN/A
12:50 AM48 °FPassing clouds.12 mph71%30.09 "HgN/A
12:20 AM48 °FPassing clouds.13 mph66%30.09 "HgN/A
11:50 PM
Oct 21
50 °FPartly cloudy.8 mph67%30.09 "HgN/A
11:20 PM48 °FPassing clouds.7 mph71%30.09 "HgN/A
10:50 PM50 °FPassing clouds.9 mph67%30.09 "HgN/A
10:20 PM48 °FPassing clouds.13 mph76%30.07 "HgN/A
9:50 PM48 °FPartly cloudy.7 mph87%30.04 "HgN/A
9:20 PM48 °FRain showers. Partly cloudy.16 mph82%30.01 "Hg5 mi
8:50 PM48 °FThundershowers. Passing clouds.23 mph87%29.95 "Hg6 mi
8:20 PM61 °FThunderstorms. Passing clouds.20 mph68%29.86 "HgN/A
7:50 PM61 °FPartly cloudy.12 mph72%29.83 "HgN/A
7:20 PM59 °FScattered showers. Partly sunny.13 mph77%29.86 "HgN/A
6:50 PM59 °FSprinkles. Broken clouds.10 mph77%29.86 "HgN/A
6:20 PM63 °FScattered clouds.5 mph64%29.86 "HgN/A
5:50 PM63 °FSprinkles. Broken clouds.7 mph64%29.86 "HgN/A
5:20 PM63 °FScattered clouds.10 mph59%29.86 "HgN/A
4:50 PM63 °FSprinkles. Partly sunny.9 mph59%29.89 "HgN/A
4:20 PM64 °FScattered clouds.8 mph60%29.92 "HgN/A
3:50 PM64 °FScattered clouds.8 mph64%29.92 "HgN/A
3:20 PM66 °FPartly sunny.10 mph60%29.95 "HgN/A
Weather by CustomWeather, © 2014

See weather overviewHow to use our weather pages